Meath Environmental Platform

Observations for Trim Patrick St

Time AQI Temp °C Hum % Pres Pa CO μg/m³ H₂S μg/m³ NO μg/m³ NO₂ μg/m³ O₃ μg/m³ SO₂ μg/m³ PM1 μg/m³ PM2.5 μg/m³ PM10 μg/m³
Saturday 8 August 2026
21:34 3 21.8 59 73,925 0 22.4 1.16 52.53 29.37 8.41 4.57 8.11 8.92
21:33 3 21.8 58 73,837 0 24.36 1.18 44.73 34.13 9.21 2.86 7.42 8.16
21:32 3 21.8 59 73,726 0 25.07 1.16 56.69 32.12 9.08 3.71 8.84 9.73
21:31 3 21.9 59 73,577 0 25.1 1.13 68.18 31.64 8.92 2.86 7.35 8.08
21:30 3 22 58 73,449 0 24.75 1.15 45.03 36.3 9.57 2.86 7.42 8.16
21:28 3 22 58 73,147 0 27.69 1.14 67.81 30.37 9.41 2.86 7.42 8.16
21:27 3 22 58 72,943 0 26.89 1.14 53.33 32.44 9.63 4.57 8.89 9.78
21:26 3 22.1 58 72,803 0 28.56 1.13 64.47 37.41 10.01 2 6.65 7.31
21:25 3 22.1 57 72,656 0 25.44 1.16 66.65 25.88 9.29 2.86 7.47 8.22
21:24 3 22.1 56 72,515 0 23.41 1.18 53.94 30.97 9.55 2.86 8.27 9.1
21:23 3 22.2 56 72,430 0 23.8 1.16 51.04 31.91 9.99 2.86 7.52 8.28
21:22 3 22.2 58 72,404 0 25.63 1.12 45.8 37.08 10.34 2.86 8.18 9
21:21 3 22.3 57 72,308 0 28.8 1.11 64.17 33.17 10.49 2.86 6.7 7.37
21:20 3 22.3 57 72,123 0 27.05 1.12 63.87 26.84 9.93 2.86 6.72 7.39
21:19 3 22.4 57 71,996 0 27.74 1.11 51.48 43.7 11.11 3.71 8.22 9.04
21:18 3 22.4 56 71,890 0 26.47 1.15 62.11 29.18 10.3 2.86 6.81 7.49
21:17 3 22.5 55 71,810 0 27.19 1.15 49.85 37.14 10.61 2.86 6.86 7.55
21:16 3 22.5 55 71,762 0 27.77 1.15 61 37.27 10.55 2.86 7.62 8.39
21:15 3 22.5 55 71,674 0 27.24 1.15 53.71 34.21 10.85 2.86 6.88 7.56
21:13 3 22.7 56 71,577 0 28.96 1.09 63.99 37.87 10.89 3.71 8.28 9.11